TimeEST,TemperatureF,Dew PointF,Humidity,Sea Level PressureIn,VisibilityMPH,Wind Direction,Wind SpeedMPH,Gust SpeedMPH,PrecipitationIn,Events,Conditions,WindDirDegrees,DateUTC
12:51 AM,48.9,42.1,77,30.26,9.0,Calm,Calm,-,N/A,,Scattered Clouds,0,2012-12-04 05:51:00
1:51 AM,48.0,43.0,83,30.27,9.0,Variable,3.5,-,N/A,,Clear,0,2012-12-04 06:51:00
2:51 AM,48.0,43.0,83,30.27,9.0,ENE,3.5,-,N/A,,Overcast,60,2012-12-04 07:51:00
4:04 AM,48.9,43.0,80,30.28,8.0,Variable,4.6,-,N/A,,Overcast,0,2012-12-04 09:04:00
4:16 AM,48.9,43.0,80,30.29,8.0,Calm,Calm,-,N/A,,Overcast,0,2012-12-04 09:16:00
4:51 AM,48.9,44.1,83,30.26,8.0,ENE,3.5,-,N/A,,Overcast,70,2012-12-04 09:51:00
5:51 AM,48.9,44.1,83,30.27,8.0,Calm,Calm,-,N/A,,Overcast,0,2012-12-04 10:51:00
5:58 AM,48.9,45.0,86,30.29,6.0,ESE,4.6,-,0.00,Rain,Light Rain,120,2012-12-04 10:58:00
6:49 AM,48.2,46.4,93,30.29,2.5,East,4.6,-,0.04,Rain,Light Rain,100,2012-12-04 11:49:00
6:51 AM,48.0,46.0,93,30.27,2.0,ESE,4.6,-,0.04,Rain,Light Rain,110,2012-12-04 11:51:00
6:58 AM,48.0,46.9,96,30.29,3.0,Variable,3.5,-,0.00,Rain,Light Rain,0,2012-12-04 11:58:00
7:07 AM,48.0,46.9,96,30.29,3.0,East,4.6,-,0.00,Rain,Light Rain,80,2012-12-04 12:07:00
7:37 AM,48.9,48.0,97,30.29,2.5,Calm,Calm,-,0.01,Rain,Light Rain,0,2012-12-04 12:37:00
7:51 AM,48.9,48.0,97,30.27,2.0,ENE,4.6,-,0.02,Rain,Light Rain,60,2012-12-04 12:51:00
8:51 AM,50.0,48.9,96,30.27,1.5,Calm,Calm,-,0.00,,Overcast,0,2012-12-04 13:51:00
9:25 AM,52.0,51.1,97,30.28,2.0,Variable,3.5,-,0.00,Rain,Light Rain,0,2012-12-04 14:25:00
9:35 AM,52.0,51.1,97,30.28,1.8,Calm,Calm,-,0.01,Rain,Light Rain,0,2012-12-04 14:35:00
9:42 AM,52.0,51.1,97,30.29,2.0,Calm,Calm,-,0.01,,Overcast,0,2012-12-04 14:42:00
9:51 AM,52.0,50.0,93,30.26,1.8,Calm,Calm,-,0.01,,Mostly Cloudy,0,2012-12-04 14:51:00
10:51 AM,55.9,53.1,90,30.25,4.0,Variable,3.5,-,N/A,,Overcast,0,2012-12-04 15:51:00
11:51 AM,59.0,52.0,78,30.21,5.0,South,5.8,-,N/A,,Haze,170,2012-12-04 16:51:00
12:51 PM,60.1,52.0,75,30.18,6.0,Calm,Calm,-,N/A,,Haze,0,2012-12-04 17:51:00
1:51 PM,62.1,52.0,70,30.15,7.0,SSE,5.8,-,N/A,,Partly Cloudy,150,2012-12-04 18:51:00
2:51 PM,60.1,52.0,75,30.14,6.0,SSE,8.1,-,N/A,,Haze,160,2012-12-04 19:51:00
3:51 PM,57.9,52.0,81,30.13,7.0,SSE,5.8,-,N/A,,Clear,160,2012-12-04 20:51:00
4:51 PM,55.9,52.0,87,30.12,8.0,Calm,Calm,-,N/A,,Clear,0,2012-12-04 21:51:00
5:51 PM,55.0,52.0,89,30.11,7.0,Calm,Calm,-,N/A,,Clear,0,2012-12-04 22:51:00
6:51 PM,54.0,52.0,93,30.09,6.0,Calm,Calm,-,N/A,,Clear,0,2012-12-04 23:51:00
7:51 PM,53.1,51.1,93,30.07,5.0,Variable,3.5,-,N/A,,Clear,0,2012-12-05 00:51:00
8:51 PM,54.0,51.1,90,30.05,5.0,Calm,Calm,-,N/A,,Clear,0,2012-12-05 01:51:00
9:51 PM,54.0,51.1,90,30.04,6.0,Calm,Calm,-,N/A,,Clear,0,2012-12-05 02:51:00
11:51 PM,57.9,51.1,78,29.97,10.0,South,6.9,-,N/A,,Scattered Clouds,180,2012-12-05 04:51:00